Find Local Weather

World > North America > United States > Tennessee

Mountain City, Tennessee Regional Weather

Lat: 36.47N, Lon: 81.81W
Wx Zone: TNZ018
Feedback
Expires:201807200800;;755991
ASUS44 KMEG 200710
RWRTN 
TENNESSEE HOURLY STATE WEATHER ROUNDUP
NATIONAL WEATHER SERVICE MEMPHIS TN
200 AM CDT FRI JUL 20 2018


TNZ017-018-042-046-047-200800-
NORTHEAST TENNESSEE
  
CITY           SKY/WX    TMP DP  RH WIND       PRES   REMARKS
TRI CITIES     FAIR      66  64  93 CALM      30.03F                  
ELIZABETHTON   FAIR      70  61  73 E5        30.05S                  
GREENEVILLE    PTSUNNY   72  61  68 CALM      30.03S                  
$$


SKY/WX - Weather  TMP - Temperature  DP - Dewpoint  RH - Relative Humidity
WIND - Wind Direction/Speed PRES - Barometric Pressure